BEL5KF EBBR-LPFR

Flight info

Callsign BEL5KF
Flight time N/A
Altitude 35000
Route CIV N872 MEDIL DCT ERIGA UZ218 FUJTI DCT BAKUP DCT MOSEN DCT ELVAR DCT ALAGU
Aircraft A20N/M-DE3FGHIJ1LORVWY/HB1G1

Departure

Time N/A
Airport Brussels Airport (EBBR)

Arrival

Time 2026-05-07 09:07
Airport Faro - Gago Coutinho International Airport (LPFR)
Time Latitude Longitude Altitude Speed Heading
2026-05-07 07:31 46.10731 -3.01755 35977 ft 416 kts 212°
2026-05-07 07:31 46.08252 -3.03906 35980 ft 416 kts 212°
2026-05-07 07:32 46.03302 -3.08192 35980 ft 415 kts 212°
2026-05-07 07:32 45.98373 -3.12451 35977 ft 415 kts 211°
2026-05-07 07:33 45.93421 -3.16717 35974 ft 414 kts 211°
2026-05-07 07:33 45.88468 -3.20974 35976 ft 414 kts 211°
2026-05-07 07:34 45.83498 -3.25216 35975 ft 414 kts 211°
2026-05-07 07:34 45.78565 -3.29427 35975 ft 414 kts 211°
2026-05-07 07:35 45.73631 -3.33639 35974 ft 414 kts 211°
2026-05-07 07:35 45.68684 -3.37858 35977 ft 414 kts 211°
2026-05-07 07:36 45.63728 -3.42074 35980 ft 414 kts 211°
2026-05-07 07:36 45.58777 -3.46279 35983 ft 414 kts 211°
2026-05-07 07:37 45.53856 -3.50451 35976 ft 414 kts 211°
2026-05-07 07:37 45.48913 -3.54631 35983 ft 413 kts 211°
2026-05-07 07:38 45.43975 -3.58800 35984 ft 413 kts 211°
2026-05-07 07:38 45.39056 -3.62945 35978 ft 413 kts 211°
2026-05-07 07:39 45.34108 -3.67112 35982 ft 413 kts 211°
2026-05-07 07:39 45.29159 -3.71291 35980 ft 413 kts 211°
2026-05-07 07:40 45.24240 -3.75421 35979 ft 413 kts 211°
2026-05-07 07:40 45.19301 -3.79552 35972 ft 413 kts 211°
2026-05-07 07:41 45.14341 -3.83689 35973 ft 413 kts 211°
2026-05-07 07:41 45.09394 -3.87806 35975 ft 413 kts 211°
2026-05-07 07:42 45.04481 -3.91886 35971 ft 412 kts 211°
2026-05-07 07:42 44.99521 -3.95997 35968 ft 412 kts 211°
2026-05-07 07:43 44.94590 -4.00073 35971 ft 412 kts 211°
2026-05-07 07:43 44.89640 -4.04160 35970 ft 413 kts 211°
2026-05-07 07:44 44.84633 -4.08261 35967 ft 412 kts 210°
2026-05-07 07:44 44.79678 -4.12319 35970 ft 411 kts 211°
2026-05-07 07:45 44.74755 -4.16354 35968 ft 411 kts 211°
2026-05-07 07:45 44.69816 -4.20397 35956 ft 411 kts 211°
2026-05-07 07:46 44.64871 -4.24437 35958 ft 410 kts 211°
2026-05-07 07:46 44.59969 -4.28435 35958 ft 411 kts 210°
2026-05-07 07:47 44.55019 -4.32462 35954 ft 411 kts 210°
2026-05-07 07:47 44.50091 -4.36463 35950 ft 411 kts 210°
2026-05-07 07:48 44.45138 -4.40477 35951 ft 411 kts 210°
2026-05-07 07:48 44.40235 -4.44459 35941 ft 411 kts 211°
2026-05-07 07:49 44.35361 -4.48604 35940 ft 411 kts 212°
2026-05-07 07:49 44.30481 -4.52767 35947 ft 411 kts 212°
2026-05-07 07:50 44.25613 -4.56899 36271 ft 411 kts 212°
2026-05-07 07:50 44.23175 -4.58964 36104 ft 409 kts 211°
2026-05-07 07:50 44.20755 -4.61010 36026 ft 409 kts 211°
2026-05-07 07:51 44.15910 -4.65096 36011 ft 408 kts 211°
2026-05-07 07:51 44.11066 -4.69198 35953 ft 407 kts 211°
2026-05-07 07:52 44.06231 -4.73281 35930 ft 408 kts 211°
2026-05-07 07:52 44.01384 -4.77355 35924 ft 408 kts 211°
2026-05-07 07:53 43.96551 -4.81402 35920 ft 408 kts 211°
2026-05-07 07:53 43.91680 -4.85472 35917 ft 408 kts 211°
2026-05-07 07:54 43.86785 -4.89545 35919 ft 409 kts 211°
2026-05-07 07:54 43.81921 -4.93573 35912 ft 408 kts 211°
2026-05-07 07:55 43.77031 -4.97623 35915 ft 407 kts 211°
2026-05-07 07:55 43.72184 -5.01638 35909 ft 407 kts 211°
2026-05-07 07:56 43.67319 -5.05663 35907 ft 408 kts 211°
2026-05-07 07:56 43.62474 -5.09664 35911 ft 408 kts 211°
2026-05-07 07:57 43.57549 -5.13723 35911 ft 409 kts 211°
2026-05-07 07:57 43.52688 -5.17722 35912 ft 408 kts 211°
2026-05-07 07:58 43.47796 -5.21739 35909 ft 408 kts 211°
2026-05-07 07:58 43.42945 -5.25715 35920 ft 408 kts 211°
2026-05-07 07:59 43.38073 -5.29700 35923 ft 408 kts 211°
2026-05-07 07:59 43.33173 -5.33701 35928 ft 409 kts 211°
2026-05-07 08:00 43.28299 -5.37672 35928 ft 410 kts 211°
2026-05-07 08:00 43.23369 -5.41684 35928 ft 410 kts 211°
2026-05-07 08:01 43.18470 -5.45660 35939 ft 411 kts 211°
2026-05-07 08:01 43.13539 -5.49656 35930 ft 411 kts 211°
2026-05-07 08:02 43.08610 -5.53643 35937 ft 410 kts 211°
2026-05-07 08:02 43.03690 -5.57614 35921 ft 410 kts 211°
2026-05-07 08:03 42.98810 -5.61547 35917 ft 410 kts 211°
2026-05-07 08:03 42.93880 -5.65513 35914 ft 411 kts 211°
2026-05-07 08:04 42.88882 -5.69552 35914 ft 412 kts 211°
2026-05-07 08:04 42.83914 -5.73527 35917 ft 412 kts 210°
2026-05-07 08:05 42.78945 -5.77493 35919 ft 413 kts 211°
2026-05-07 08:05 42.73993 -5.81442 35916 ft 413 kts 211°
2026-05-07 08:06 42.69030 -5.85395 35915 ft 413 kts 211°
2026-05-07 08:06 42.64052 -5.89354 35917 ft 412 kts 211°
2026-05-07 08:07 42.59089 -5.93294 35909 ft 413 kts 211°
2026-05-07 08:07 42.54142 -5.97213 35918 ft 413 kts 211°
2026-05-07 08:08 42.49179 -6.01137 35910 ft 414 kts 211°
2026-05-07 08:08 42.44179 -6.05084 35910 ft 415 kts 211°
2026-05-07 08:09 42.39207 -6.08999 35910 ft 415 kts 211°
2026-05-07 08:09 42.34209 -6.12928 35907 ft 415 kts 211°
2026-05-07 08:10 42.29203 -6.16857 35903 ft 415 kts 211°
2026-05-07 08:10 42.24239 -6.20747 35902 ft 415 kts 211°
2026-05-07 08:11 42.19228 -6.24664 35904 ft 415 kts 211°
2026-05-07 08:11 42.14238 -6.28559 35898 ft 416 kts 211°
2026-05-07 08:12 42.09199 -6.32485 35898 ft 417 kts 211°
2026-05-07 08:12 42.04169 -6.36395 35897 ft 417 kts 212°
2026-05-07 08:13 41.99114 -6.40317 35898 ft 418 kts 212°
2026-05-07 08:13 41.94061 -6.44227 35902 ft 418 kts 212°
2026-05-07 08:14 41.89023 -6.48119 35901 ft 418 kts 212°
2026-05-07 08:14 41.83870 -6.51979 35900 ft 420 kts 209°
2026-05-07 08:15 41.78551 -6.55145 35900 ft 422 kts 203°
2026-05-07 08:15 41.72918 -6.57532 35901 ft 425 kts 197°
2026-05-07 08:16 41.67147 -6.59170 35902 ft 426 kts 194°
2026-05-07 08:16 41.61299 -6.60731 35901 ft 427 kts 194°
2026-05-07 08:17 41.55508 -6.62275 35901 ft 427 kts 194°
2026-05-07 08:17 41.49679 -6.63828 35900 ft 428 kts 194°
2026-05-07 08:18 41.43805 -6.65391 35902 ft 428 kts 194°
2026-05-07 08:18 41.37957 -6.66972 35896 ft 430 kts 194°
2026-05-07 08:19 41.32081 -6.68545 35894 ft 431 kts 194°
2026-05-07 08:19 41.26178 -6.70110 35893 ft 432 kts 194°
2026-05-07 08:20 41.20314 -6.71660 35887 ft 432 kts 194°
2026-05-07 08:20 41.14428 -6.73212 35889 ft 431 kts 194°
2026-05-07 08:21 41.08514 -6.74767 35885 ft 432 kts 194°
2026-05-07 08:21 41.02615 -6.76314 35886 ft 433 kts 194°
2026-05-07 08:22 40.96726 -6.77857 35880 ft 434 kts 194°
2026-05-07 08:22 40.90797 -6.79408 35883 ft 436 kts 194°
2026-05-07 08:23 40.84778 -6.80973 35882 ft 436 kts 194°
2026-05-07 08:23 40.78837 -6.82513 35879 ft 437 kts 194°
2026-05-07 08:24 40.72899 -6.84053 35883 ft 436 kts 194°
2026-05-07 08:24 40.66927 -6.85604 35881 ft 438 kts 194°
2026-05-07 08:25 40.60899 -6.87164 35878 ft 439 kts 194°
2026-05-07 08:25 40.54921 -6.88710 35881 ft 439 kts 194°
2026-05-07 08:26 40.45913 -6.91035 35879 ft 440 kts 194°
2026-05-07 08:26 40.39888 -6.92585 35878 ft 441 kts 194°
2026-05-07 08:27 40.33847 -6.94137 35883 ft 443 kts 194°
2026-05-07 08:27 40.27776 -6.95694 35881 ft 444 kts 194°
2026-05-07 08:28 40.21735 -6.97242 35873 ft 445 kts 194°
2026-05-07 08:28 40.15633 -6.98800 35875 ft 445 kts 194°
2026-05-07 08:29 40.09560 -7.00350 35872 ft 445 kts 194°
2026-05-07 08:29 40.03502 -7.01891 35874 ft 446 kts 194°
2026-05-07 08:30 39.97393 -7.03443 35871 ft 447 kts 195°
2026-05-07 08:30 39.91324 -7.04983 35864 ft 448 kts 195°
2026-05-07 08:31 39.85157 -7.06537 35873 ft 447 kts 195°
2026-05-07 08:31 39.79007 -7.08084 35690 ft 447 kts 195°
2026-05-07 08:32 39.72893 -7.09624 35831 ft 448 kts 195°
2026-05-07 08:32 39.66796 -7.11157 35858 ft 448 kts 195°
2026-05-07 08:33 39.60685 -7.12694 35877 ft 448 kts 195°
2026-05-07 08:33 39.54539 -7.14235 35879 ft 448 kts 195°
2026-05-07 08:34 39.48441 -7.15761 35883 ft 448 kts 195°
2026-05-07 08:34 39.42282 -7.17301 35878 ft 448 kts 195°
2026-05-07 08:35 39.36178 -7.18823 35891 ft 449 kts 195°
2026-05-07 08:35 39.30069 -7.20338 35883 ft 448 kts 196°
2026-05-07 08:36 39.23910 -7.21870 35884 ft 449 kts 196°
2026-05-07 08:36 39.17913 -7.23770 35885 ft 445 kts 201°
2026-05-07 08:37 39.11926 -7.25885 35886 ft 444 kts 201°
2026-05-07 08:37 39.05975 -7.27976 35884 ft 445 kts 201°
2026-05-07 08:38 38.99963 -7.30081 35888 ft 446 kts 201°
2026-05-07 08:38 38.94001 -7.32161 35887 ft 445 kts 201°
2026-05-07 08:39 38.88012 -7.34244 35888 ft 445 kts 201°
2026-05-07 08:39 38.82027 -7.36312 35884 ft 445 kts 202°
2026-05-07 08:40 38.76014 -7.38397 35896 ft 445 kts 202°
2026-05-07 08:40 38.70053 -7.40459 35894 ft 445 kts 202°
2026-05-07 08:41 38.64061 -7.42535 35893 ft 446 kts 202°
2026-05-07 08:41 38.58054 -7.44608 35904 ft 447 kts 202°
2026-05-07 08:42 38.52059 -7.46676 35896 ft 445 kts 202°
2026-05-07 08:42 38.46078 -7.48734 35905 ft 446 kts 202°
2026-05-07 08:43 38.40082 -7.50795 35897 ft 447 kts 202°
2026-05-07 08:43 38.34087 -7.52850 35907 ft 445 kts 202°
2026-05-07 08:44 38.28104 -7.54897 35912 ft 446 kts 203°
2026-05-07 08:44 38.22095 -7.56951 35899 ft 446 kts 203°
2026-05-07 08:45 38.16120 -7.58988 35893 ft 444 kts 203°
2026-05-07 08:45 38.10119 -7.60915 35902 ft 450 kts 198°
2026-05-07 08:46 38.03764 -7.61550 35887 ft 461 kts 187°
2026-05-07 08:46 37.97351 -7.61486 35915 ft 461 kts 187°
2026-05-07 08:47 37.90945 -7.61466 35907 ft 461 kts 188°
2026-05-07 08:47 37.84528 -7.61468 35898 ft 460 kts 188°
2026-05-07 08:48 37.78097 -7.61472 35919 ft 461 kts 188°
2026-05-07 08:48 37.71701 -7.61473 35898 ft 460 kts 187°
2026-05-07 08:49 37.65298 -7.61472 35910 ft 462 kts 187°
2026-05-07 08:49 37.58836 -7.61473 35921 ft 461 kts 188°
2026-05-07 08:50 37.52435 -7.61477 35918 ft 461 kts 187°
2026-05-07 08:50 37.46050 -7.61477 35925 ft 460 kts 187°
2026-05-07 08:51 37.39673 -7.61484 35913 ft 458 kts 188°
2026-05-07 08:51 37.33283 -7.61471 35925 ft 460 kts 188°
2026-05-07 08:52 37.26883 -7.61477 35906 ft 459 kts 188°
2026-05-07 08:52 37.20516 -7.61483 35717 ft 460 kts 188°
2026-05-07 08:53 37.17278 -7.61489 34627 ft 472 kts 188°
2026-05-07 08:53 37.13972 -7.61496 33523 ft 471 kts 188°
2026-05-07 08:53 37.10708 -7.61494 32572 ft 464 kts 188°
2026-05-07 08:53 37.07503 -7.61523 31622 ft 455 kts 193°
2026-05-07 08:54 37.04545 -7.62304 30649 ft 421 kts 216°
2026-05-07 08:54 37.02254 -7.64196 29709 ft 383 kts 238°
2026-05-07 08:54 37.00879 -7.66840 28790 ft 351 kts 258°
2026-05-07 08:54 37.00322 -7.69724 27860 ft 332 kts 272°
2026-05-07 08:55 37.00416 -7.72512 26942 ft 321 kts 285°
2026-05-07 08:55 37.01082 -7.75115 26027 ft 313 kts 298°
2026-05-07 08:55 37.02261 -7.77371 25115 ft 309 kts 311°
2026-05-07 08:55 37.03848 -7.79134 24218 ft 309 kts 324°
2026-05-07 08:56 37.05776 -7.80322 23319 ft 313 kts 338°
2026-05-07 08:56 37.07918 -7.80816 22461 ft 318 kts 352°
2026-05-07 08:56 37.10120 -7.80903 21620 ft 318 kts 353°
2026-05-07 08:56 37.12324 -7.80969 20770 ft 318 kts 353°
2026-05-07 08:57 37.14558 -7.81018 19931 ft 328 kts 354°
2026-05-07 08:57 37.16885 -7.81055 19067 ft 338 kts 354°
2026-05-07 08:57 37.19253 -7.81070 18217 ft 349 kts 357°
2026-05-07 08:57 37.21701 -7.80500 17333 ft 367 kts 17°
2026-05-07 08:58 37.23931 -7.78897 16417 ft 384 kts 37°
2026-05-07 08:58 37.25707 -7.76301 15405 ft 400 kts 58°
2026-05-07 08:58 37.26680 -7.72991 14411 ft 411 kts 79°
2026-05-07 08:58 37.26658 -7.69438 13413 ft 417 kts 101°
2026-05-07 08:59 37.25599 -7.66069 12404 ft 420 kts 123°
2026-05-07 08:59 37.23581 -7.63417 11640 ft 414 kts 145°
2026-05-07 08:59 37.21004 -7.61912 10915 ft 407 kts 166°
2026-05-07 08:59 37.18234 -7.61580 10206 ft 401 kts 180°
2026-05-07 09:00 37.15449 -7.61567 9506 ft 396 kts 180°
2026-05-07 09:00 37.12711 -7.61546 8802 ft 392 kts 180°
2026-05-07 09:00 37.09996 -7.61521 8111 ft 387 kts 180°
2026-05-07 09:00 37.07343 -7.61519 7384 ft 382 kts 181°
2026-05-07 09:01 37.04731 -7.61634 6493 ft 366 kts 180°
2026-05-07 09:01 37.02239 -7.61644 5735 ft 344 kts 182°
2026-05-07 09:01 37.00001 -7.62225 5135 ft 323 kts 204°
2026-05-07 09:01 36.98256 -7.63807 4702 ft 300 kts 230°
2026-05-07 09:02 36.97315 -7.66015 4280 ft 280 kts 258°
2026-05-07 09:02 36.97271 -7.68326 3977 ft 259 kts 280°
2026-05-07 09:02 36.97646 -7.70441 3838 ft 238 kts 284°
2026-05-07 09:02 36.98013 -7.72364 3676 ft 223 kts 283°
2026-05-07 09:03 36.98324 -7.74255 3381 ft 216 kts 281°
2026-05-07 09:03 36.98587 -7.76073 3090 ft 207 kts 281°
2026-05-07 09:03 36.98825 -7.77807 2825 ft 198 kts 281°
2026-05-07 09:03 36.99046 -7.79432 2653 ft 185 kts 281°
2026-05-07 09:04 36.99261 -7.81005 2387 ft 179 kts 281°
2026-05-07 09:04 36.99468 -7.82511 2131 ft 175 kts 281°
2026-05-07 09:04 36.99676 -7.84009 1876 ft 167 kts 281°
2026-05-07 09:04 36.99869 -7.85397 1644 ft 155 kts 281°
2026-05-07 09:05 37.00049 -7.86685 1466 ft 145 kts 281°
2026-05-07 09:05 37.00217 -7.87888 1262 ft 135 kts 281°
2026-05-07 09:05 37.00370 -7.89043 1072 ft 134 kts 280°
2026-05-07 09:05 37.00520 -7.90178 923 ft 133 kts 281°
2026-05-07 09:06 37.00690 -7.91322 776 ft 133 kts 281°
2026-05-07 09:06 37.00853 -7.92468 612 ft 133 kts 281°
2026-05-07 09:06 37.01022 -7.93612 403 ft 132 kts 281°
2026-05-07 09:06 37.01178 -7.94740 209 ft 132 kts 282°
2026-05-07 09:07 37.01339 -7.95869 60 ft 131 kts 281°
2026-05-07 09:07 37.01491 -7.96924 21 ft 101 kts 280°
2026-05-07 09:07 37.01582 -7.97579 17 ft 51 kts 281°
2026-05-07 09:07 37.01629 -7.97837 23 ft 17 kts 304°
2026-05-07 09:08 37.01723 -7.97813 25 ft 15 kts 57°
2026-05-07 09:08 37.01765 -7.97692 27 ft 14 kts 73°
2026-05-07 09:08 37.01765 -7.97568 25 ft 15 kts 99°
2026-05-07 09:08 37.01766 -7.97447 23 ft 9 kts 46°
2026-05-07 09:09 37.01817 -7.97396 25 ft 8 kts 39°
2026-05-07 09:09 37.01846 -7.97333 25 ft 11 kts 97°
2026-05-07 09:09 37.01827 -7.97198 24 ft 19 kts 99°
2026-05-07 09:09 37.01803 -7.97035 26 ft 12 kts 101°
2026-05-07 09:10 37.01807 -7.97010 26 ft 2 kts 12°
2026-05-07 09:10 37.01840 -7.97005 26 ft 5 kts 10°
2026-05-07 09:10 37.01886 -7.96995 27 ft 8 kts 10°
2026-05-07 09:10 37.01939 -7.96983 27 ft 3 kts
2026-05-07 09:11 37.01941 -7.96983 27 ft 0 kts